TianYi 2
1 43155U 18008A 18297.85792229 .00000535 00000-0 35999-4 0 9998
2 43155 097.5147 010.0734 0019359 062.2500 041.1070 15.10762801042066
Zhou Enlai
1 43156U 18008B 18297.89450942 .00000945 00000-0 61531-4 0 9992
2 43156 097.5186 010.0445 0016434 058.3174 060.4519 15.10239988042059
TianYi 6
1 43158U 18008D 18297.94538791 .00001032 00000-0 67441-4 0 9993
2 43158 097.5146 009.8303 0015090 056.1955 046.6067 15.09920881042035
S-Net G
1 43186U 18014G 18297.80602955 .00000142 00000-0 17568-4 0 9996
2 43186 097.7158 204.5503 0012372 079.6153 280.6462 14.96518164039708
S-Net H
1 43187U 18014H 18297.80587512 .00000137 00000-0 17139-4 0 9996
2 43187 097.7155 204.5443 0012377 079.5814 280.6801 14.96519094039707
S-Net J
1 43188U 18014J 18297.80573457 .00000134 00000-0 16878-4 0 9996
2 43188 097.7157 204.5528 0012366 079.6581 280.6034 14.96519766039708
S-Net K
1 43189U 18014K 18297.80593587 .00000132 00000-0 16717-4 0 9993
2 43189 097.7155 204.5429 0012369 079.6050 280.6565 14.96518548038256
FMN 1
1 43192U 18015A 18297.92705984 .00001716 00000-0 74984-4 0 9996
2 43192 097.3719 064.3143 0017971 050.3529 309.9288 15.23308429040265
Shaonian Xing
1 43199U 18015H 18297.97085584 .00001306 00000-0 56495-4 0 9997
2 43199 097.3502 063.9374 0018951 061.8232 298.4917 15.24061133040305
1KUNS-PF
1 43466U 98067NP 18297.82669689 .00016360 00000-0 21553-3 0 9999
2 43466 051.6389 089.3915 0000471 229.3242 130.7710 15.58578748025899
UBAKUSAT
1 43467U 98067NQ 18297.73275491 .00010254 00000-0 14207-3 0 9998
2 43467 051.6386 090.2672 0002434 248.9721 111.1011 15.57718758025880
Irazu
1 43468U 98067NR 18296.83203993 .00017401 00000-0 22343-3 0 9998
2 43468 051.6383 093.9994 0000558 205.5281 154.5684 15.59212833125737
EnduroSat One
1 43551U 98067NZ 18297.80154469 .00012349 00000-0 17589-3 0 9994
2 43551 051.6381 091.4642 0006036 337.9948 022.0784 15.56736994016104
EQUISat
1 43552U 98067PA 18297.80782611 .00011062 00000-0 15971-3 0 9995
2 43552 051.6383 091.5078 0006299 339.0401 021.0332 15.56495348016067
UiTMSat 1
1 43589U 98067PD 18297.91170819 .00012831 00000-0 18685-3 0 9998
2 43589 051.6381 091.4478 0005652 348.3924 011.6936 15.56095099011815
Maya 1
1 43590U 98067PE 18296.49749998 .00010364 00000-0 15234-3 0 9998
2 43590 051.6377 098.5037 0005663 344.4145 015.6671 15.56088599011520
Bhutan 1
1 43591U 98067PF 18297.39474277 .00011760 00000-0 17150-3 0 9994
2 43591 051.6380 093.9960 0005832 349.1615 010.9250 15.56150484011660
SiriusSat 1
1 43595U 98067PG 18297.93050696 .00011513 00000-0 17087-3 0 9998
2 43595 051.6383 091.5694 0003352 298.0940 061.9712 15.55701463010928
SiriusSat 2
1 43596U 98067PH 18297.93683394 .00011232 00000-0 16778-3 0 9990
2 43596 051.6390 091.6184 0003961 301.1487 058.9116 15.55551811010924
Tanusha-3
1 43597U 98067PJ 18297.80320610 .00013802 00000-0 20262-3 0 9994
2 43597 051.6371 092.2132 0003455 314.2512 045.8195 15.55806676010908
SurfSat
1 43614U 18070B 18297.92802710 .00002478 00000-0 69738-4 0 9998
2 43614 093.0284 265.7948 0018403 130.2049 230.0817 15.36380062006047
CP-7 DAVE
1 43615U 18070C 18297.86266983 .00002385 00000-0 67116-4 0 9993
2 43615 093.0278 265.7693 0018450 130.2287 230.0591 15.36384256006031
ELFIN-B
1 43616U 18070D 18297.60040856 -.00000006 00000-0 00000-0 0 9999
2 43616 093.0225 265.6361 0019325 134.7952 225.4961 15.36464085005997
ELFIN-A
1 43617U 18070E 18297.59972191 -.00000006 00000-0 00000-0 0 9994
2 43617 093.0299 265.6739 0018488 131.8064 228.4850 15.36501491005992
STARS-Me Mother
1 43640U 98067PQ 18297.90800466 .00008172 00000-0 12753-3 0 9996
2 43640 051.6387 092.1728 0005418 291.7519 068.2895 15.54775677002846
/EX
1
0
SB KEPS @ AMSAT $ORB18291.N
2Line Orbital Elements 18291.AMSAT
HR AMSAT ORBITAL ELEMENTS FOR AMATEUR SATELLITES IN NASA FORMAT
FROM WA5QGD FORT WORTH,TX October 18, 2018
BID: ORB18291.N
DECODE 2-LINE ELSETS WITH THE FOLLOWING KEY:
1 AAAAAU 00 0 0 BBBBB.BBBBBBBB .CCCCCCCC 00000-0 00000-0 0 DDDZ
2 AAAAA EEE.EEEE FFF.FFFF GGGGGGG HHH.HHHH III.IIII JJ.JJJJJJJJKKKKKZ
KEY: A-CATALOGNUM B-EPOCHTIME C-DECAY D-ELSETNUM E-INCLINATION F-RAAN
G-ECCENTRICITY H-ARGPERIGEE I-MNANOM J-MNMOTION K-ORBITNUM Z-CHECKSUM
TO ALL RADIO AMATEURS BT
AO-07
1 07530U 74089B 18291.56080265 -.00000029 00000-0 10066-3 0 9994
2 07530 101.7046 257.1023 0012438 95.8232 20.5356 12.53634869 10057
UO-11
1 14781U 84021B 18291.20290665 .00000086 00000-0 16754-4 0 9998
2 14781 97.6382 322.0961 0009499 46.7607 313.4398 14.83037279862676
LO-19
1 20442U 90005G 18291.80875703 .00000002 00000-0 16995-4 0 9991
2 20442 98.6190 229.5868 0012386 141.1843 219.0233 14.32907405501594
HUBBLE
1 20580U 90037B 18290.66877366 .00000543 00000-0 22249-4 0 9998
2 20580 028.4706 025.3906 0002848 022.8705 091.0368 15.09113886363905
MET-2/21
1 22782U 93055A 18291.74264721 -.00000028 00000-0 -39216-4 0 9994
2 22782 82.5511 355.8780 0023218 138.0158 337.7976 13.83813914269261
AO-27
1 22825U 93061C 18291.85389245 .00000014 00000-0 23496-4 0 9996
2 22825 98.8776 270.2970 0008279 353.8955 6.2124 14.30042052307249
IO-26
1 22826U 93061D 18291.49229954 .00000009 00000-0 21221-4 0 9995
2 22826 98.8717 269.9506 0008625 343.6978 16.3925 14.30374063307388
FO-29
1 24278U 96046B 18291.49559298 -.00000021 00000-0 12559-4 0 9990
2 24278 98.5148 113.2564 0350822 150.8177 211.3074 13.53086535 94911
NOAA-15
1 25338U 98030A 18291.55430920 .00000025 00000-0 29421-4 0 9999
2 25338 98.7655 308.0441 0009728 225.0491 134.9900 14.25879485 62605
GO-32
1 25397U 98043D 18291.79777306 -.00000009 00000-0 15283-4 0 9990
2 25397 98.6594 230.2411 0002046 51.6595 308.4767 14.23653288 53314
ISS
1 25544U 98067A 18292.02553488 .00001562 00000-0 31136-4 0 9999
2 25544 51.6412 121.5917 0003597 308.8829 188.9506 15.53838148137777
NO-44
1 26931U 01043C 18291.40667051 -.00000020 00000-0 24109-4 0 9992
2 26931 67.0502 271.4590 0007107 259.3430 100.6871 14.30520261890174
SO-50
1 27607U 02058C 18291.83999475 .00000013 00000-0 22661-4 0 9997
2 27607 64.5550 72.0444 0076267 302.8466 56.5309 14.75488823851201
CO-55
1 27844U 03031E 18290.94217942 .00000059 00000-0 46114-4 0 9994
2 27844 098.6878 297.7915 0010191 022.6288 337.5337 14.22138667793609
CO-57
1 27848U 03031J 18291.70993861 .00000047 00000-0 41020-4 0 9992
2 27848 98.6962 298.9854 0010241 30.8674 329.3104 14.21739768793618
RS-22
1 27939U 03042A 18291.84871014 .00000140 00000-0 33676-4 0 9997
2 27939 98.0078 67.9227 0014181 114.9018 245.3668 14.66724008804943
NOAA-18
1 28654U 05018A 18291.58299757 -.00000024 00000-0 11999-4 0 9992
2 28654 99.1329 329.4721 0015068 138.7392 221.4920 14.12387465691200
CO-58
1 28895U 05043F 18291.40527589 .00000151 00000-0 37724-4 0 9999
2 28895 97.9263 77.9978 0017669 43.7173 316.5425 14.63591869691904
Falconsat-3
1 30776U 07006E 18291.14849235 .00002983 00000-0 86974-4 0 9993
2 30776 35.4349 203.6743 0001666 49.4116 310.6755 15.35080561643220
CO-65
1 32785U 08021C 18291.83420400 .00000246 00000-0 32245-4 0 9990
2 32785 97.5476 298.1114 0012903 355.3803 4.7293 14.88191137567560
AAUSAT2
1 32788U 08021F 18291.55747857 .00000624 00000-0 62804-4 0 9994
2 32788 97.5148 312.8823 0010412 299.0673 60.9505 14.94483732568600
DO-64
1 32789U 08021G 18290.74693700 .00001426 00000-0 10085-3 0 9996
2 32789 97.4994 342.3854 0011172 234.3924 125.6263 15.06381618570232
